[keps] orb08290.amsat
Ray Hoad
r.hoad at att.net
Thu Oct 16 18:12:14 PDT 2008
SB KEPS @ AMSAT $ORB08290.O
Orbital Elements 08290.OSCAR
HR AMSAT ORBITAL ELEMENTS FOR OSCAR SATELLITES
FROM WA5QGD FORT WORTH,TX October 16, 2008
Send Subscribe/unsubscribe to KEPS at
http://www.amsat.org/mailman/listinfo/keps
BID: ORB08290.O
TO ALL RADIO AMATEURS BT
Satellite: AO-07
Catalog number: 07530
Epoch time: 08289.64175131
Element set: 0304
Inclination: 101.4565 deg
RA of node: 317.0655 deg
Eccentricity: 0.0011965
Arg of perigee: 027.9906 deg
Mean anomaly: 332.1803 deg
Mean motion: 12.53574328 rev/day
Decay rate: -2.7e-07 rev/day^2
Epoch rev: 55207
Checksum: 288
Satellite: AO-10
Catalog number: 14129
Epoch time: 08288.62994557
Element set: 0575
Inclination: 026.0324 deg
RA of node: 190.8569 deg
Eccentricity: 0.5960966
Arg of perigee: 165.1097 deg
Mean anomaly: 225.7390 deg
Mean motion: 02.05868818 rev/day
Decay rate: -7.3e-07 rev/day^2
Epoch rev: 19056
Checksum: 350
Satellite: UO-11
Catalog number: 14781
Epoch time: 08289.69171038
Element set: 788
Inclination: 098.1431 deg
RA of node: 325.4554 deg
Eccentricity: 0.0009904
Arg of perigee: 049.4580 deg
Mean anomaly: 310.7467 deg
Mean motion: 14.79670479 rev/day
Decay rate: 3.03e-06 rev/day^2
Epoch rev: 32167
Checksum: 331
Satellite: RS-15
Catalog number: 23439
Epoch time: 08289.98924220
Element set: 0221
Inclination: 064.8180 deg
RA of node: 299.7079 deg
Eccentricity: 0.0145864
Arg of perigee: 099.4685 deg
Mean anomaly: 262.2759 deg
Mean motion: 11.27552397 rev/day
Decay rate: -3.9e-07 rev/day^2
Epoch rev: 56858
Checksum: 365
Satellite: FO-29
Catalog number: 24278
Epoch time: 08289.73753739
Element set: 0887
Inclination: 098.5762 deg
RA of node: 190.1992 deg
Eccentricity: 0.0349753
Arg of perigee: 263.4948 deg
Mean anomaly: 092.6266 deg
Mean motion: 13.52939451 rev/day
Decay rate: -4.4e-07 rev/day^2
Epoch rev: 60069
Checksum: 377
Satellite: SO-33
Catalog number: 25509
Epoch time: 08290.53369387
Element set: 303
Inclination: 031.4344 deg
RA of node: 350.2118 deg
Eccentricity: 0.0354409
Arg of perigee: 008.1174 deg
Mean anomaly: 352.4993 deg
Mean motion: 14.28227952 rev/day
Decay rate: 8.1e-07 rev/day^2
Epoch rev: 52097
Checksum: 301
Satellite: AO-40
Catalog number: 26609
Epoch time: 08289.79980320
Element set: 135
Inclination: 007.9293 deg
RA of node: 054.8179 deg
Eccentricity: 0.7938082
Arg of perigee: 134.1027 deg
Mean anomaly: 327.8138 deg
Mean motion: 01.25585604 rev/day
Decay rate: -2.98e-06 rev/day^2
Epoch rev: 3655
Checksum: 337
Satellite: VO-52
Catalog number: 28650
Epoch time: 08289.76420943
Element set: 0058
Inclination: 097.7773 deg
RA of node: 352.9830 deg
Eccentricity: 0.0028188
Arg of perigee: 106.7629 deg
Mean anomaly: 253.6671 deg
Mean motion: 14.81510003 rev/day
Decay rate: 4.52e-06 rev/day^2
Epoch rev: 18645
Checksum: 329
Satellite: PO-63
Catalog number: 29712
Epoch time: 08290.35944215
Element set: 885
Inclination: 097.8629 deg
RA of node: 346.1960 deg
Eccentricity: 0.0014229
Arg of perigee: 352.7678 deg
Mean anomaly: 007.3326 deg
Mean motion: 14.80297572 rev/day
Decay rate: 6.56e-06 rev/day^2
Epoch rev: 9539
Checksum: 348
/EX
SB KEPS @ AMSAT $ORB08290.D
Orbital Elements 08290.MICROS
HR AMSAT ORBITAL ELEMENTS FOR THE MICROSATS
FROM WA5QGD FORT WORTH,TX October 16, 2008
Send Subscribe/unsubscribe to KEPS at
http://www.amsat.org/mailman/listinfo/keps
BID: ORB08290.D
TO ALL RADIO AMATEURS BT
Satellite: AO-16
Catalog number: 20439
Epoch time: 08289.47834660
Element set: 0443
Inclination: 098.2459 deg
RA of node: 263.4828 deg
Eccentricity: 0.0010744
Arg of perigee: 173.9871 deg
Mean anomaly: 186.1441 deg
Mean motion: 14.31805219 rev/day
Decay rate: 1.1e-07 rev/day^2
Epoch rev: 97813
Checksum: 323
Satellite: LO-19
Catalog number: 20442
Epoch time: 08289.85508807
Element set: 364
Inclination: 098.2132 deg
RA of node: 271.9982 deg
Eccentricity: 0.0011890
Arg of perigee: 170.7349 deg
Mean anomaly: 189.4061 deg
Mean motion: 14.32042946 rev/day
Decay rate: 1.2e-07 rev/day^2
Epoch rev: 97834
Checksum: 325
Satellite: AO-27
Catalog number: 22825
Epoch time: 08289.82305243
Element set: 84
Inclination: 098.3998 deg
RA of node: 245.4109 deg
Eccentricity: 0.0007513
Arg of perigee: 265.3223 deg
Mean anomaly: 094.7098 deg
Mean motion: 14.29249349 rev/day
Decay rate: 5.7e-07 rev/day^2
Epoch rev: 78500
Checksum: 331
Satellite: IO-26
Catalog number: 22826
Epoch time: 08289.92607862
Element set: 0800
Inclination: 098.3930 deg
RA of node: 246.3665 deg
Eccentricity: 0.0008055
Arg of perigee: 262.1807 deg
Mean anomaly: 097.8461 deg
Mean motion: 14.29498748 rev/day
Decay rate: -4.0e-08 rev/day^2
Epoch rev: 78511
Checksum: 341
Satellite: GO-32
Catalog number: 25397
Epoch time: 08289.61664642
Element set: 0724
Inclination: 098.3535 deg
RA of node: 318.7681 deg
Eccentricity: 0.0000459
Arg of perigee: 218.7183 deg
Mean anomaly: 141.3966 deg
Mean motion: 14.23149947 rev/day
Decay rate: 9.7e-07 rev/day^2
Epoch rev: 53334
Checksum: 340
Satellite: NO-44
Catalog number: 26931
Epoch time: 08290.46315358
Element set: 2
Inclination: 067.0543 deg
RA of node: 332.2343 deg
Eccentricity: 0.0007117
Arg of perigee: 259.4199 deg
Mean anomaly: 100.6078 deg
Mean motion: 14.29536224 rev/day
Decay rate: 4.9e-07 rev/day^2
Epoch rev: 36774
Checksum: 296
Satellite: SO-50
Catalog number: 27607
Epoch time: 08289.78429532
Element set: 723
Inclination: 064.5595 deg
RA of node: 047.3756 deg
Eccentricity: 0.0085260
Arg of perigee: 256.1333 deg
Mean anomaly: 103.0264 deg
Mean motion: 14.71386458 rev/day
Decay rate: 4.9e-07 rev/day^2
Epoch rev: 31271
Checksum: 317
Satellite: CO-55
Catalog number: 27844
Epoch time: 08289.52481671
Element set: 0418
Inclination: 098.7180 deg
RA of node: 296.1345 deg
Eccentricity: 0.0010462
Arg of perigee: 125.3621 deg
Mean anomaly: 234.8531 deg
Mean motion: 14.20600843 rev/day
Decay rate: 4.4e-07 rev/day^2
Epoch rev: 27452
Checksum: 298
Satellite: CO-57
Catalog number: 27848
Epoch time: 08289.53913053
Element set: 0370
Inclination: 098.7188 deg
RA of node: 295.2252 deg
Eccentricity: 0.0010165
Arg of perigee: 129.2366 deg
Mean anomaly: 230.9716 deg
Mean motion: 14.20408616 rev/day
Decay rate: 5.3e-07 rev/day^2
Epoch rev: 27449
Checksum: 322
Satellite: AO-51
Catalog number: 28375
Epoch time: 08289.55392695
Element set: 0223
Inclination: 098.0654 deg
RA of node: 307.3246 deg
Eccentricity: 0.0083887
Arg of perigee: 146.9053 deg
Mean anomaly: 213.7429 deg
Mean motion: 14.40620636 rev/day
Decay rate: 1.0e-08 rev/day^2
Epoch rev: 22573
Checksum: 320
Satellite: CO-56
Catalog number: 28941
Epoch time: 08290.51905477
Element set: 467
Inclination: 098.1183 deg
RA of node: 058.4357 deg
Eccentricity: 0.0145905
Arg of perigee: 318.5398 deg
Mean anomaly: 040.4882 deg
Mean motion: 15.62829672 rev/day
Decay rate: 2.9633e-04 rev/day^2
Epoch rev: 14895
Checksum: 364
Satellite: CP3
Catalog number: 31128
Epoch time: 08289.65679084
Element set: 0459
Inclination: 098.0250 deg
RA of node: 347.9182 deg
Eccentricity: 0.0102329
Arg of perigee: 322.9554 deg
Mean anomaly: 036.4640 deg
Mean motion: 14.51981319 rev/day
Decay rate: -4.8e-07 rev/day^2
Epoch rev: 07941
Checksum: 322
Satellite: CP4
Catalog number: 31132
Epoch time: 08290.59563720
Element set: 437
Inclination: 098.0311 deg
RA of node: 351.5767 deg
Eccentricity: 0.0084755
Arg of perigee: 311.9684 deg
Mean anomaly: 047.4313 deg
Mean motion: 14.55149385 rev/day
Decay rate: 1.96e-06 rev/day^2
Epoch rev: 7960
Checksum: 315
Satellite: CO-65
Catalog number: 32785
Epoch time: 08289.35051874
Element set: 0185
Inclination: 097.9809 deg
RA of node: 348.8932 deg
Eccentricity: 0.0015992
Arg of perigee: 104.0327 deg
Mean anomaly: 256.2667 deg
Mean motion: 14.81402786 rev/day
Decay rate: 4.24e-06 rev/day^2
Epoch rev: 02519
Checksum: 344
/EX
SB KEPS @ AMSAT $ORB08290.W
Orbital Elements 08290.WEATHER
HR AMSAT ORBITAL ELEMENTS FOR WEATHER SATELLITES
FROM WA5QGD FORT WORTH,TX October 16, 2008
Send Subscribe/unsubscribe to KEPS at
http://www.amsat.org/mailman/listinfo/keps
BID: ORB08290.W
TO ALL RADIO AMATEURS BT
Satellite: NOAA-10
Catalog number: 16969
Epoch time: 08290.49576999
Element set: 330
Inclination: 098.7158 deg
RA of node: 312.1892 deg
Eccentricity: 0.0012197
Arg of perigee: 184.0470 deg
Mean anomaly: 176.0626 deg
Mean motion: 14.27370722 rev/day
Decay rate: 5.4e-07 rev/day^2
Epoch rev: 14874
Checksum: 330
Satellite: NOAA-11
Catalog number: 19531
Epoch time: 08290.23544793
Element set: 361
Inclination: 098.7965 deg
RA of node: 017.8550 deg
Eccentricity: 0.0012305
Arg of perigee: 083.5112 deg
Mean anomaly: 276.7485 deg
Mean motion: 14.14880282 rev/day
Decay rate: 2.12e-06 rev/day^2
Epoch rev: 3502
Checksum: 290
Satellite: NOAA-12
Catalog number: 21263
Epoch time: 08290.55769588
Element set: 874
Inclination: 098.7723 deg
RA of node: 292.5314 deg
Eccentricity: 0.0013017
Arg of perigee: 129.8248 deg
Mean anomaly: 230.4077 deg
Mean motion: 14.25550073 rev/day
Decay rate: 6.1e-07 rev/day^2
Epoch rev: 90568
Checksum: 317
Satellite: MET-3/5
Catalog number: 21655
Epoch time: 08289.90839406
Element set: 0518
Inclination: 082.5573 deg
RA of node: 019.0842 deg
Eccentricity: 0.0014857
Arg of perigee: 072.0933 deg
Mean anomaly: 288.1811 deg
Mean motion: 13.17016853 rev/day
Decay rate: 5.1e-07 rev/day^2
Epoch rev: 82547
Checksum: 317
Satellite: MET-2/21
Catalog number: 22782
Epoch time: 08289.82961231
Element set: 0277
Inclination: 082.5528 deg
RA of node: 015.8626 deg
Eccentricity: 0.0021442
Arg of perigee: 315.0706 deg
Mean anomaly: 044.8711 deg
Mean motion: 13.83633083 rev/day
Decay rate: 1.1e-07 rev/day^2
Epoch rev: 76381
Checksum: 295
Satellite: OKEAN-4
Catalog number: 23317
Epoch time: 08289.72797166
Element set: 0723
Inclination: 082.5413 deg
RA of node: 202.5892 deg
Eccentricity: 0.0024038
Arg of perigee: 089.2130 deg
Mean anomaly: 271.1863 deg
Mean motion: 14.82641817 rev/day
Decay rate: 1.63e-06 rev/day^2
Epoch rev: 75614
Checksum: 308
